Air Quality Table

TIMESTAMP NO2 SO2 O3 PM10 PM2.5 CO TEMP HUM AIRPRES WS WD NO BENZENE
2021-08-02 17:00 32.51 ug/m3 0.35 ug/m3 76.4 ug/m3 65.92 ug/m3 23.37 ug/m3 0.57 mg/m3 32.69 C 58.3 % 1,012.10 mbar 2.46 m/s 62.6 Deg 21.19 ug/m3 1.36 ug/m3
2021-08-02 16:00 30.67 ug/m3 0.28 ug/m3 83.84 ug/m3 55.8 ug/m3 16.56 ug/m3 0.49 mg/m3 33.16 C 54.3 % 1,012.30 mbar 2.81 m/s 61.35 Deg 20.48 ug/m3 1.6 ug/m3
2021-08-02 15:00 26.63 ug/m3 0.29 ug/m3 92.37 ug/m3 59.34 ug/m3 17.74 ug/m3 0.4 mg/m3 33.29 C 51.1 % 1,012.51 mbar 3.32 m/s 62.83 Deg 16.65 ug/m3 1.89 ug/m3
2021-08-02 14:00 29.37 ug/m3 0.32 ug/m3 90.18 ug/m3 51.4 ug/m3 27.04 ug/m3 0.47 mg/m3 34 C 51.26 % 1,012.59 mbar 2.85 m/s 51.38 Deg 19.83 ug/m3 1.65 ug/m3
2021-08-02 13:00 32.75 ug/m3 0.31 ug/m3 97.69 ug/m3 57.89 ug/m3 28 ug/m3 0.41 mg/m3 32.98 C 54.37 % 1,012.84 mbar 2.62 m/s 50.32 Deg 18.38 ug/m3 3.22 ug/m3
2021-08-02 12:00 29.64 ug/m3 0.3 ug/m3 93.82 ug/m3 50.98 ug/m3 15.01 ug/m3 0.39 mg/m3 31.65 C 59.15 % 1,012.89 mbar 2.89 m/s 57.55 Deg 19.47 ug/m3 1.6 ug/m3
2021-08-02 11:00 30.94 ug/m3 0.35 ug/m3 84.95 ug/m3 49.78 ug/m3 24.31 ug/m3 0.4 mg/m3 31.95 C 55.52 % 1,012.75 mbar 2.8 m/s 52.23 Deg 22.55 ug/m3 2.68 ug/m3
2021-08-02 10:00 33.68 ug/m3 0.35 ug/m3 75.76 ug/m3 78.39 ug/m3 42.94 ug/m3 0.41 mg/m3 31.39 C 57.85 % 1,012.58 mbar 2.39 m/s 56.3 Deg 26.48 ug/m3 1.94 ug/m3
2021-08-02 09:00 38.03 ug/m3 0.45 ug/m3 65.14 ug/m3 110.07 ug/m3 40.02 ug/m3 0.47 mg/m3 30.99 C 62.01 % 1,012.44 mbar 2.01 m/s 54.13 Deg 26.36 ug/m3 2.44 ug/m3
2021-08-02 08:00 41.88 ug/m3 0.43 ug/m3 52.85 ug/m3 127.47 ug/m3 36.01 ug/m3 0.52 mg/m3 30.67 C 63.51 % 1,012.27 mbar 0.88 m/s 176.77 Deg 23.8 ug/m3 3.65 ug/m3
2021-08-02 07:00 61.13 ug/m3 0.49 ug/m3 30.66 ug/m3 94.89 ug/m3 25.41 ug/m3 0.51 mg/m3 30.09 C 58.82 % 1,011.95 mbar 1.07 m/s 266.7 Deg 18.7 ug/m3 6.56 ug/m3
2021-08-02 06:00 79.63 ug/m3 1.35 ug/m3 6.52 ug/m3 75.11 ug/m3 19.04 ug/m3 0.64 mg/m3 29.91 C 47.71 % 1,011.56 mbar 0.75 m/s 322.13 Deg 73.75 ug/m3 8.24 ug/m3
2021-08-02 05:00 52.81 ug/m3 0.64 ug/m3 26.97 ug/m3 45.53 ug/m3 14.71 ug/m3 0.48 mg/m3 29.75 C 48.42 % 1,011.27 mbar 0.6 m/s 162 Deg 27.8 ug/m3 2.33 ug/m3
2021-08-02 04:00 19.81 ug/m3 0.22 ug/m3 66.98 ug/m3 40.83 ug/m3 10.86 ug/m3 0.2 mg/m3 30.63 C 43.06 % 1,011.08 mbar 0.8 m/s 255.65 Deg 1.7 ug/m3 1.94 ug/m3
2021-08-02 03:00 18.37 ug/m3 0.12 ug/m3 58.84 ug/m3 31.04 ug/m3 8.44 ug/m3 0.15 mg/m3 30.72 C 47.05 % 1,011.08 mbar 0.72 m/s 248.13 Deg 0.85 ug/m3 1.21 ug/m3
2021-08-02 02:00 17.53 ug/m3 0.09 ug/m3 75.92 ug/m3 33.79 ug/m3 14.38 ug/m3 0.24 mg/m3 30.91 C 45.32 % 1,011.35 mbar 0.44 m/s 259.81 Deg 0.49 ug/m3 0.86 ug/m3
2021-08-02 01:00 16.08 ug/m3 0.06 ug/m3 84.87 ug/m3 52.95 ug/m3 23.26 ug/m3 0.22 mg/m3 30.5 C 50.61 % 1,011.46 mbar 0.84 m/s 324.57 Deg 0.73 ug/m3 0.58 ug/m3
2021-08-02 00:00 10.06 ug/m3 0.05 ug/m3 73.5 ug/m3 70.2 ug/m3 32.82 ug/m3 0.22 mg/m3 29.74 C 66.59 % 1,011.69 mbar 1.33 m/s 313.98 Deg 0.56 ug/m3 2.45 ug/m3
2021-08-01 23:00 20.24 ug/m3 0.12 ug/m3 55.56 ug/m3 68.91 ug/m3 28.57 ug/m3 0.35 mg/m3 30.49 C 61.94 % 1,011.96 mbar 0.96 m/s 326.12 Deg 4.38 ug/m3 2.24 ug/m3
2021-08-01 22:00 51.19 ug/m3 0.32 ug/m3 50.34 ug/m3 100.44 ug/m3 31.38 ug/m3 0.43 mg/m3 31.33 C 47.2 % 1,012.12 mbar 1.18 m/s 239.68 Deg 11.7 ug/m3 4.69 ug/m3
2021-08-01 21:00 69.88 ug/m3 0.93 ug/m3 11.1 ug/m3 107.44 ug/m3 31.09 ug/m3 0.97 mg/m3 30.93 C 56.46 % 1,011.89 mbar 1.26 m/s 61.42 Deg 45.91 ug/m3 7.93 ug/m3
2021-08-01 20:00 85.78 ug/m3 1.15 ug/m3 7.34 ug/m3 90.11 ug/m3 23.08 ug/m3 1.47 mg/m3 31.03 C 59.64 % 1,011.49 mbar 1.44 m/s 58.1 Deg 68.29 ug/m3 9.5 ug/m3
2021-08-01 19:00 62.86 ug/m3 0.61 ug/m3 40.09 ug/m3 107.23 ug/m3 28.07 ug/m3 1.08 mg/m3 32.19 C 49.9 % 1,011.07 mbar 1.71 m/s 54.43 Deg 30.09 ug/m3 4.55 ug/m3
2021-08-01 18:00 36.18 ug/m3 0.32 ug/m3 61.65 ug/m3 67.01 ug/m3 17.28 ug/m3 0.52 mg/m3 32.59 C 53.82 % 1,010.96 mbar 2.01 m/s 125.92 Deg 16.33 ug/m3 1.19 ug/m3
2021-08-01 17:00 12.7 ug/m3 0.12 ug/m3 79.49 ug/m3 56.49 ug/m3 22.27 ug/m3 0.16 mg/m3 37.34 C 17.35 % 1,010.87 mbar 2.04 m/s 199.9 Deg 2.37 ug/m3 0.52 ug/m3
2021-08-01 16:00 13.32 ug/m3 0.13 ug/m3 86.55 ug/m3 69.55 ug/m3 19.42 ug/m3 0.3 mg/m3 37 C 23.14 % 1,010.96 mbar 2.17 m/s 166.73 Deg 5.94 ug/m3 1.42 ug/m3
2021-08-01 15:00 19.86 ug/m3 0.15 ug/m3 104.34 ug/m3 61.58 ug/m3 18.14 ug/m3 0.34 mg/m3 35.41 C 37.14 % 1,011.02 mbar 2.3 m/s 47.38 Deg 8.17 ug/m3 1.05 ug/m3
2021-08-01 14:00 13.56 ug/m3 0.15 ug/m3 98.2 ug/m3 43.58 ug/m3 21.37 ug/m3 0.24 mg/m3 36.88 C 27.56 % 1,011.20 mbar 2.04 m/s 149.35 Deg 6.3 ug/m3 0.56 ug/m3
2021-08-01 13:00 16.48 ug/m3 0.12 ug/m3 91.97 ug/m3 35.45 ug/m3 15.33 ug/m3 0.22 mg/m3 37.47 C 21.14 % 1,011.35 mbar 1.82 m/s 174.13 Deg 4.34 ug/m3 0.79 ug/m3
2021-08-01 12:00 25.92 ug/m3 0.24 ug/m3 94.09 ug/m3 47.37 ug/m3 16.53 ug/m3 0.37 mg/m3 35.92 C 27.11 % 1,011.65 mbar 1.6 m/s 217.62 Deg 10.51 ug/m3 3.23 ug/m3
2021-08-01 11:00 29.19 ug/m3 0.35 ug/m3 87.06 ug/m3 61.67 ug/m3 26.73 ug/m3 0.48 mg/m3 33.58 C 38.87 % 1,011.71 mbar 2.32 m/s 124.47 Deg 11.71 ug/m3 2.81 ug/m3
2021-08-01 10:00 35.39 ug/m3 0.36 ug/m3 72.13 ug/m3 81.17 ug/m3 25.85 ug/m3 0.52 mg/m3 32.57 C 49.18 % 1,011.52 mbar 2.87 m/s 48.42 Deg 16.15 ug/m3 3.99 ug/m3
2021-08-01 09:00 48.1 ug/m3 0.58 ug/m3 39.64 ug/m3 83.43 ug/m3 27.15 ug/m3 0.56 mg/m3 32.23 C 51.21 % 1,011.37 mbar 1.91 m/s 46.18 Deg 33.45 ug/m3 1.47 ug/m3
2021-08-01 08:00 32.05 ug/m3 0.3 ug/m3 54.87 ug/m3 93.61 ug/m3 39.61 ug/m3 0.39 mg/m3 32 C 47.81 % 1,011.49 mbar 1.02 m/s 220.17 Deg 11.7 ug/m3 1.66 ug/m3
2021-08-01 07:00 17.74 ug/m3 0.16 ug/m3 60.37 ug/m3 89.73 ug/m3 29.18 ug/m3 0.31 mg/m3 30.4 C 56.13 % 1,011.00 mbar 1.37 m/s 246.9 Deg 2.94 ug/m3 1.1 ug/m3
2021-08-01 06:00 45.47 ug/m3 0.11 ug/m3 62.43 ug/m3 79.44 ug/m3 22.67 ug/m3 0.23 mg/m3 29.68 C 55.03 % 1,010.61 mbar 2.29 m/s 243.97 Deg 0.85 ug/m3 2.75 ug/m3
2021-08-01 05:00 41.76 ug/m3 0.31 ug/m3 26.25 ug/m3 62.39 ug/m3 22.35 ug/m3 0.34 mg/m3 29.59 C 42.44 % 1,009.59 mbar 1.25 m/s 236.2 Deg 3.23 ug/m3 2.99 ug/m3
2021-08-01 04:00 32.2 ug/m3 0.3 ug/m3 25.42 ug/m3 57.57 ug/m3 20.43 ug/m3 0.3 mg/m3 29.66 C 45.05 % 1,009.44 mbar 0.78 m/s 232.13 Deg 2.74 ug/m3 4.41 ug/m3
2021-08-01 03:00 36.72 ug/m3 0.35 ug/m3 21.52 ug/m3 60.57 ug/m3 17.63 ug/m3 0.29 mg/m3 29.96 C 44.85 % 1,010.07 mbar 0.35 m/s 289.19 Deg 2.39 ug/m3 4.72 ug/m3
2021-08-01 02:00 33.01 ug/m3 0.2 ug/m3 42.16 ug/m3 49.23 ug/m3 25.5 ug/m3 0.45 mg/m3 30.42 C 46.78 % 1,010.85 mbar 0.55 m/s 309.52 Deg 7.91 ug/m3 1.68 ug/m3
2021-08-01 01:00 30.57 ug/m3 0.2 ug/m3 40.44 ug/m3 65.06 ug/m3 28.39 ug/m3 0.39 mg/m3 30.08 C 57.19 % 1,011.34 mbar 0.77 m/s 211.23 Deg 3.69 ug/m3 4.99 ug/m3
2021-08-01 00:00 46.94 ug/m3 0.36 ug/m3 23.67 ug/m3 53.94 ug/m3 16.34 ug/m3 0.54 mg/m3 30.27 C 60.51 % 1,011.48 mbar 0.51 m/s 140.54 Deg 13.91 ug/m3 2.83 ug/m3
2021-07-31 23:00 58.35 ug/m3 0.44 ug/m3 23.46 ug/m3 48.97 ug/m3 27.53 ug/m3 0.53 mg/m3 30.55 C 52.77 % 1,011.28 mbar 0.6 m/s 150.53 Deg 20.37 ug/m3 4.22 ug/m3
2021-07-31 22:00 48.38 ug/m3 0.49 ug/m3 48.44 ug/m3 80.8 ug/m3 25.41 ug/m3 0.61 mg/m3 29.58 C 66.06 % 1,011.24 mbar 0.8 m/s 61.12 Deg 29.03 ug/m3 7.16 ug/m3
2021-07-31 21:00 24.18 ug/m3 0.24 ug/m3 70.63 ug/m3 83.16 ug/m3 21.69 ug/m3 0.52 mg/m3 30 C 68.14 % 1,011.02 mbar 1.15 m/s 45.9 Deg 12.92 ug/m3 2.73 ug/m3
2021-07-31 20:00 27.08 ug/m3 0.35 ug/m3 63.06 ug/m3 81.67 ug/m3 26.92 ug/m3 0.59 mg/m3 29.96 C 66.89 % 1,010.37 mbar 1.69 m/s 56.42 Deg 19.47 ug/m3 2.2 ug/m3
2021-07-31 19:00 25.53 ug/m3 0.29 ug/m3 68.27 ug/m3 80.47 ug/m3 25.97 ug/m3 0.58 mg/m3 30.11 C 66.49 % 1,009.90 mbar 2.51 m/s 57.5 Deg 14.36 ug/m3 1.87 ug/m3

It is to be noted that the data is provisional and subject to quality assurance procedures. For validated data kindly refer your request to contact.air@era.org.mt